Miscellaneous Local Product
Issued by NWS Hastings, NE

Home | Current Version | Previous Version | Text Only | Print | Product List | Glossary On
Versions: 1 2 3 4 5 6 7 8 9 10 11 12 13 14 15 16 17 18 19 20 21 22 23 24 25 26 27 28 29 30 31 32 33 34 35 36 37 38 39 40 41 42 43 44 45 46 47 48 49 50
000
AXUS43 KGID 020702
MISGRI

GID CWA HOURLY WEATHER ROUNDUP
NATIONAL WEATHER SERVICE HASTINGS NE
200 AM CDT SUN AUG 02 2015

NOTE: "FAIR" INDICATES FEW OR NO CLOUDS BELOW 12,000 FEET WITH NO
SIGNIFICANT WEATHER AND/OR OBSTRUCTIONS TO VISIBILITY.

...SOUTH CENTRAL NEBRASKA...

CITY           SKY/WX    TMP DP  RH WIND       PRES   REMARKS
GRAND ISLAND   MOCLDY    72  67  84 S9        29.91F
HASTINGS       PTCLDY    73  64  73 S9        29.92F
KEARNEY        PTCLDY    72  61  68 SW7       29.93S
ORD            PTCLDY    64  62  93 S3        29.91F
YORK           PTCLDY    72  68  88 S8        29.91F
AURORA         PTCLDY    72  68  86 S9        29.91S
LEXINGTON      PTCLDY    67  64  90 CALM      29.95F
HOLDREGE       CLEAR     70  60  71 SW7       29.94S
HEBRON         CLEAR     74  65  74 SW9       29.92F

...NEBRASKA PANHANDLE...

CITY           SKY/WX    TMP DP  RH WIND       PRES   REMARKS
CHADRON        CLEAR     64  55  72 W3        29.95F
ALLIANCE       CLEAR     64  55  72 SW3       30.01S
SCOTTSBLUFF    PTCLDY    71  55  56 SE9       30.02F
SIDNEY         MOCLDY    65  55  70 W5        30.06F

...WESTERN AND NORTH CENTRAL NEBRASKA...

CITY           SKY/WX    TMP DP  RH WIND       PRES   REMARKS
VALENTINE      NOT AVBL
AINSWORTH      CLEAR     66  61  82 SW7       29.92S
ONEILL         CLEAR     67  61  83 S8        29.88F
BROKEN BOW     PTCLDY    64  60  87 SW3       29.95S
IMPERIAL       CLOUDY    72  55  55 CALM      29.98S
NORTH PLATTE   CLEAR     61  57  87 W3        29.97S
MCCOOK         MOCLDY    74  59  59 SW7       29.95S

...EASTERN NEBRASKA...

CITY           SKY/WX    TMP DP  RH WIND       PRES   REMARKS
NORFOLK        MOCLDY    67  65  93 SW5       29.87F
SO SIOUX CITY  MOCLDY    68  64  87 SE6       29.86F
TEKAMAH        CLEAR     69  67  93 SE3       29.86F
COLUMBUS       PTCLDY    64  59  82 CALM      29.89S
ALBION         MOCLDY    65  62  91 CALM      29.90F
OMAHA EPPLEY   PTCLDY    75  71  87 S13       29.89F
OFFUTT AFB     CLEAR     72  69  90 SE8       29.89F
MILLARD        CLEAR     74  72  91 SE6       29.89F
LINCOLN        CLEAR     73  70  90 S8        29.89F
NEBRASKA CITY  CLEAR     71  67  87 S8        29.92F
BEATRICE       PTCLDY    73  67  80 S6        29.92S
FALLS CITY     CLEAR     72  64  76 S8        29.92F

...NORTHERN KANSAS...

CITY           SKY/WX    TMP DP  RH WIND       PRES   REMARKS
GOODLAND       MOCLDY    70  63  78 S12       30.01F
HILL CITY      MOCLDY    73  66  78 SW5       29.95F
NORTON         SUNNY     73  61  64 S6        29.95S
PHILLIPSBURG   CLEAR     75  66  73 S5        29.94F
SMITH CENTER   CLEAR     70  64  83 S7        29.94S
HAYS           CLOUDY    73  63  68 CALM      29.96R
RUSSELL        CLOUDY    73  68  84 S8        29.94F
CONCORDIA      MOCLDY    75  68  78 S10       29.93F
SALINA         MOCLDY    75  70  84 S5        29.94S
TOPEKA         CLEAR     74  69  85 SE7       29.95F



USA.gov is the U.S. government's official web portal to all federal, state and local government web resources and services.